Home   Weather   Nome   Past weeks
Flag for USA

Past Weather in Nome, Alaska, USA — Yesterday and Last 2 Weeks

Now
5 °F

Partly sunny.


Feels Like: -14 °F
Forecast: 10 / 4 °F
Wind: 16 mph from East

Location: Nome Airport

Current Time: Jan 18, 2020 at 3:12:32 pm

Latest Report: Jan 18, 2020 at 2:00 pm


Visibility: 10 mi

Pressure: 29.61 "Hg

Humidity: 72%

Dew Point: -2 °F

Location of NomeLocation

Past Weather in Nome — Graph

°F

Nome Temperature Yesterday

Maximum temperature yesterday: 10 °F (at 12:53 am)
Minimum temperature yesterday: -3 °F (at 10:53 pm)
Average temperature yesterday: 6 °F

High & Low Weather Summary for the Past Weeks

 TemperatureHumidityPressure
High28 °F (Jan 13, 2:59 am)100% (Jan 14, 11:53 am)30.67 "Hg (Jan 14, 11:53 am)
Low-21 °F (Jan 8, 3:53 am)34% (Jan 9, 6:53 pm)29.61 "Hg (Jan 18, 2:00 pm)
Average5 °F71%30.08 "Hg
* Reported Jan 3 2:53 pm — Jan 18 2:00 pm, Nome. Weather by CustomWeather, © 2020

Note: Actual official high and low records may vary slightly from our data, if they occured in-between our weather recording intervals... More about our weather records

Nome Weather History for the Previous 24 Hours

Scroll right to see more
 ConditionsComfort  
Time TempWeatherWind HumidityBarometerVisibility
2:00 pm
Sat, Jan 18
5 °FPartly sunny.16 mph72%29.61 "Hg10 mi
1:36 pm4 °FPartly sunny.13 mph69%29.62 "Hg10 mi
12:53 pm2 °FSunny.13 mph69%29.62 "Hg10 mi
11:53 am2 °FSunny.14 mph69%29.62 "Hg10 mi
10:53 am2 °FClear.14 mph69%29.62 "Hg10 mi
9:53 am3 °FClear.16 mph62%29.62 "Hg10 mi
8:53 am4 °FClear.13 mph60%29.63 "Hg10 mi
7:53 am4 °FClear.13 mph57%29.64 "Hg10 mi
6:53 am5 °FClear.12 mph54%29.65 "Hg10 mi
5:53 am5 °FClear.8 mph54%29.67 "Hg10 mi
4:53 am4 °FClear.9 mph57%29.69 "Hg10 mi
3:53 am5 °FClear.9 mph54%29.71 "Hg10 mi
2:53 am5 °FClear.10 mph54%29.73 "Hg10 mi
1:53 am5 °FClear.8 mph54%29.75 "Hg10 mi
12:53 am3 °FClear.8 mph57%29.77 "Hg10 mi
11:53 pm
Fri, Jan 17
0 °FClear.8 mphN/A29.78 "Hg10 mi
10:53 pm-3 °FClear.8 mph68%29.80 "Hg10 mi
9:53 pm3 °FClear.6 mph62%29.81 "Hg10 mi
8:53 pm7 °FClear.8 mph55%29.82 "Hg10 mi
7:53 pm2 °FClear.9 mph65%29.83 "Hg10 mi
6:53 pm4 °FClear.7 mph66%29.85 "Hg10 mi
5:53 pm6 °FClear.7 mph66%29.86 "Hg10 mi
4:53 pm8 °FSunny.10 mph60%29.86 "Hg10 mi
3:53 pm9 °FSunny.12 mph61%29.87 "Hg10 mi
Weather by CustomWeather, © 2020

See weather overview

Advertising